{"data":{"norad_id":62172,"intl_designator":"2024-225K","name":"STARLINK-32407","alt_names":[],"object_type":"PAYLOAD","status":"ACTIVE","operator":null,"country":"US","launch_date":"2024-11-30","launch_site_code":"AFWTR","launch_vehicle":null,"mission":null,"orbit_class":"UNKNOWN","rcs_meters":null,"size_class":null,"mass_kg":null,"dimensions":null,"purposes":["comms"],"wikipedia_slug":null,"has_3d_model":false,"image_url":null,"decayed_at":null,"tle_current":{"epoch":"2026-09-21T17:55:41.639808Z","epoch_age_seconds":74064,"freshness":"FRESH","line1":"1 62172U 24225K   26264.74700972  .00000360  00000+0  37988-4 0  9996","line2":"2 62172  70.0013  30.0736 0003076 268.9784  91.1023 14.98335582 99248","mean_motion":14.98335582,"eccentricity":0.0003076,"inclination_deg":70.0013,"raan_deg":30.0736,"arg_perigee_deg":268.9784,"mean_anomaly_deg":91.1023,"bstar":3.7988e-5,"rev_number":9924,"period_min":96.106641082225,"perigee_km":569.90075509995,"apogee_km":574.17650314699,"semimajor_km":6950.1756291235,"source":"CELESTRAK","updated_at":"2026-09-22T09:00:49.535964Z"}}}